Weather in Kobyakino

Russia / Kostroma Oblast     57°44′50″N   41°27′18″E
temp.,
°C
wind,
m/s
gust,
m/s
humid.,
%
clouds,
%
prec.,
mm/h
press.,
hPa
HPBL,
m
21 april, wed
wed2100:00+4e51358100 0.1 1019661
03:00+3ese61578100 0.6 1016821
06:00+1e71897100 3.6 1011857
09:00+1ese81696100 8.0 1009966
12:00+4ese81790100 0.1 10061047
15:00+5sse71594100 3.0 10051332
18:00+3s61190100 0.4 10071075
21:00+3ssw4990100 0.5 1010861
22 april, thu
thu2200:00+3ssw3894100 0.1 1011563
03:00+3ssw3895100 0.1 1013459
06:00+3s3896100 0.0 1014335
09:00+4s3790100 0.0 1016408
12:00+8s467276 0.1 1016989
15:00+10ssw455973 0.1 10161503
18:00+9ssw387370 0.1 1017503
21:00+5s310895 0.1 1019228
23 april, fri
fri2300:00+4s310935 0.0 1019223
03:00+3sse39945 0.0 1019194
06:00+4se412895 0.0 1019310
09:00+10sse5107538 0.0 1019574
12:00+14sse576455 0.0 10181260
15:00+15s576166 1.3 10171388
18:00+13sse4871100 3.2 1017290
21:00+9se3109065 5.3 1017215
24 april, sat
sat2400:00+7se3109219 0.4 1017223
03:00+7se310936 0.4 1015239
06:00+7se412916 0.0 1014349
09:00+11se51276100 0.0 1012740
12:00+14se61161100 0.8 10111798
15:00+14se61162100 1.4 10091895
18:00+11ese61265100 0.6 10071356
21:00+9ese51373100 0.6 1006757
25 april, sun
sun2500:00+3wsw4795100 0.5 1007447
03:00+2w31098100 5.9 1007491
06:00+3w3996100 2.1 1008596
09:00+5w4684100 2.3 1008793
12:00+7wsw4673100 0.7 10091189
15:00+8w476493 1.4 10101561
18:00+6w486997 0.8 1011694
21:00+2wsw310885 0.8 1013241